Location: Epalinges
(46.5518°N, 6.6683°E)
Time: 02:47:06
(UTC+00:00)

FALCON 9 DEB - Pass Details

Date: 20 June 2021
Orbit: 358 x 375 km, 53.0° (Epoch: 04 August)

Event Time Altitude Azimuth Distance (km) Brightness Sun altitude
Rises 02:35:47 0° 298° (WNW) 2,263 6.6 -9.0°
Reaches altitude 10° 02:37:52 10° 295° (WNW) 1,404 5.5 -8.7°
Maximum altitude 02:40:58 61° 214° (SW) 434 2.8 -8.4°
Drops below altitude 10° 02:44:02 10° 133° (SE) 1,384 5.7 -8.0°
Sets 02:46:04 0° 130° (SE) 2,227 6.8 -7.8°
